Time,TemperatureF,DewpointF,PressureIn,WindDirection,WindDirectionDegrees,WindSpeedMPH,WindSpeedGustMPH,Humidity,HourlyPrecipIn,Conditions,Clouds,dailyrainin,SoftwareType,DateUTC
2013-02-22 00:07:00,20.4,15.0,30.36,ENE,64,0.0,-999.0,78,-99.99,,,0.00,weatherlink.com 1.10,2013-02-22 05:07:00,
2013-02-22 00:23:00,20.2,14.0,30.36,ENE,64,0.0,-999.0,78,-99.99,,,0.00,weatherlink.com 1.10,2013-02-22 05:23:00,
2013-02-22 00:38:00,19.8,14.0,30.36,ENE,64,0.0,-999.0,79,-99.99,,,0.00,weatherlink.com 1.10,2013-02-22 05:38:00,
2013-02-22 00:53:00,19.5,14.0,30.36,ENE,64,0.0,-999.0,80,-99.99,,,0.00,weatherlink.com 1.10,2013-02-22 05:53:00,
2013-02-22 01:08:00,19.4,14.0,30.36,ENE,64,0.0,-999.0,80,-99.99,,,0.00,weatherlink.com 1.10,2013-02-22 06:08:00,
2013-02-22 01:23:00,19.3,14.0,30.37,ENE,64,0.0,-999.0,81,-99.99,,,0.00,weatherlink.com 1.10,2013-02-22 06:23:00,
2013-02-22 01:38:00,19.1,14.0,30.38,ENE,64,0.0,-999.0,81,-99.99,,,0.00,weatherlink.com 1.10,2013-02-22 06:38:00,
2013-02-22 01:53:00,19.1,14.0,30.40,ENE,64,0.0,-999.0,81,-99.99,,,0.00,weatherlink.com 1.10,2013-02-22 06:53:00,
2013-02-22 02:08:00,19.1,15.0,30.40,ENE,64,0.0,-999.0,82,-99.99,,,0.00,weatherlink.com 1.10,2013-02-22 07:08:00,
2013-02-22 02:23:00,19.3,15.0,30.39,ENE,64,0.0,-999.0,83,-99.99,,,0.00,weatherlink.com 1.10,2013-02-22 07:23:00,
2013-02-22 02:38:00,19.4,15.0,30.39,ENE,64,0.0,-999.0,83,-99.99,,,0.00,weatherlink.com 1.10,2013-02-22 07:38:00,
2013-02-22 02:53:00,19.7,15.0,30.40,ENE,64,0.0,-999.0,83,-99.99,,,0.00,weatherlink.com 1.10,2013-02-22 07:53:00,
2013-02-22 03:08:00,19.7,15.0,30.38,ENE,64,0.0,-999.0,82,-99.99,,,0.00,weatherlink.com 1.10,2013-02-22 08:08:00,
2013-02-22 03:23:00,19.8,15.0,30.37,ENE,64,0.0,-999.0,82,-99.99,,,0.00,weatherlink.com 1.10,2013-02-22 08:23:00,
2013-02-22 03:38:00,19.8,15.0,30.38,ENE,64,0.0,-999.0,82,-99.99,,,0.00,weatherlink.com 1.10,2013-02-22 08:38:00,
2013-02-22 03:53:00,19.8,15.0,30.38,ENE,64,0.0,-999.0,82,-99.99,,,0.00,weatherlink.com 1.10,2013-02-22 08:53:00,
2013-02-22 04:08:00,19.8,15.0,30.37,ENE,64,0.0,-999.0,82,-99.99,,,0.00,weatherlink.com 1.10,2013-02-22 09:08:00,
2013-02-22 04:23:00,19.7,15.0,30.36,ENE,64,0.0,-999.0,83,-99.99,,,0.00,weatherlink.com 1.10,2013-02-22 09:23:00,
2013-02-22 04:38:00,19.7,15.0,30.36,ENE,64,0.0,-999.0,83,-99.99,,,0.00,weatherlink.com 1.10,2013-02-22 09:38:00,
2013-02-22 04:53:00,19.7,15.0,30.37,ENE,64,0.0,-999.0,83,-99.99,,,0.00,weatherlink.com 1.10,2013-02-22 09:53:00,
2013-02-22 05:08:00,19.7,15.0,30.40,ENE,64,0.0,-999.0,83,-99.99,,,0.00,weatherlink.com 1.10,2013-02-22 10:08:00,
2013-02-22 05:23:00,19.8,16.0,30.39,ENE,64,0.0,-999.0,84,-99.99,,,0.00,weatherlink.com 1.10,2013-02-22 10:23:00,
2013-02-22 05:38:00,19.9,16.0,30.39,ENE,64,0.0,-999.0,84,-99.99,,,0.00,weatherlink.com 1.10,2013-02-22 10:38:00,
2013-02-22 05:53:00,19.9,16.0,30.39,ENE,64,0.0,-999.0,84,-99.99,,,0.00,weatherlink.com 1.10,2013-02-22 10:53:00,
2013-02-22 06:08:00,20.0,16.0,30.38,ENE,64,0.0,-999.0,84,-99.99,,,0.00,weatherlink.com 1.10,2013-02-22 11:08:00,
2013-02-22 06:23:00,20.1,18.0,30.40,ENE,64,0.0,-999.0,92,-99.99,,,0.00,weatherlink.com 1.10,2013-02-22 11:23:00,
2013-02-22 06:38:00,20.3,16.0,30.41,ENE,64,0.0,-999.0,84,-99.99,,,0.00,weatherlink.com 1.10,2013-02-22 11:38:00,
2013-02-22 06:53:00,20.5,17.0,30.40,ENE,64,0.0,-999.0,85,-99.99,,,0.00,weatherlink.com 1.10,2013-02-22 11:53:00,
2013-02-22 07:08:00,20.6,17.0,30.41,ENE,64,0.0,-999.0,85,-99.99,,,0.00,weatherlink.com 1.10,2013-02-22 12:08:00,
2013-02-22 07:23:00,20.8,17.0,30.40,ENE,64,0.0,-999.0,85,-99.99,,,0.00,weatherlink.com 1.10,2013-02-22 12:23:00,
2013-02-22 07:38:00,21.1,17.0,30.39,ENE,63,0.0,-999.0,84,-99.99,,,0.00,weatherlink.com 1.10,2013-02-22 12:38:00,
2013-02-22 07:53:00,21.5,17.0,30.39,ENE,63,0.0,-999.0,84,-99.99,,,0.00,weatherlink.com 1.10,2013-02-22 12:53:00,
2013-02-22 08:08:00,21.9,18.0,30.38,NE,42,1.0,-999.0,83,-99.99,,,0.00,weatherlink.com 1.10,2013-02-22 13:08:00,
2013-02-22 08:23:00,22.2,18.0,30.37,ENE,67,0.0,-999.0,83,-99.99,,,0.00,weatherlink.com 1.10,2013-02-22 13:23:00,
2013-02-22 08:38:00,22.7,18.0,30.36,ENE,59,2.0,-999.0,83,-99.99,,,0.00,weatherlink.com 1.10,2013-02-22 13:38:00,
2013-02-22 08:53:00,23.8,19.0,30.36,WNW,288,0.0,-999.0,82,-99.99,,,0.00,weatherlink.com 1.10,2013-02-22 13:53:00,
2013-02-22 09:08:00,24.5,19.0,30.36,ENE,58,1.0,-999.0,81,-99.99,,,0.00,weatherlink.com 1.10,2013-02-22 14:08:00,
2013-02-22 09:23:00,24.9,19.0,30.36,NE,45,1.0,-999.0,79,-99.99,,,0.00,weatherlink.com 1.10,2013-02-22 14:23:00,
2013-02-22 09:38:00,25.3,20.0,30.36,ENE,66,1.0,-999.0,79,-99.99,,,0.00,weatherlink.com 1.10,2013-02-22 14:38:00,
2013-02-22 09:53:00,25.8,20.0,30.36,NNE,28,0.0,-999.0,78,-99.99,,,0.00,weatherlink.com 1.10,2013-02-22 14:53:00,
2013-02-22 10:08:00,26.2,20.0,30.36,North,5,1.0,-999.0,77,-99.99,,,0.00,weatherlink.com 1.10,2013-02-22 15:08:00,
2013-02-22 10:24:00,26.7,20.0,30.35,ESE,106,0.0,-999.0,76,-99.99,,,0.00,weatherlink.com 1.10,2013-02-22 15:24:00,
2013-02-22 10:38:00,27.1,20.0,30.34,NE,45,2.0,-999.0,75,-99.99,,,0.00,weatherlink.com 1.10,2013-02-22 15:38:00,
2013-02-22 10:54:00,27.5,21.0,30.34,NE,44,1.0,-999.0,75,-99.99,,,0.00,weatherlink.com 1.10,2013-02-22 15:54:00,
2013-02-22 11:08:00,27.7,20.0,30.34,ENE,64,0.0,-999.0,74,-99.99,,,0.00,weatherlink.com 1.10,2013-02-22 16:08:00,
2013-02-22 11:24:00,28.0,21.0,30.33,ENE,72,0.0,-999.0,74,-99.99,,,0.00,weatherlink.com 1.10,2013-02-22 16:24:00,
2013-02-22 11:39:00,28.6,21.0,30.31,North,360,2.0,-999.0,74,-99.99,,,0.00,weatherlink.com 1.10,2013-02-22 16:39:00,
2013-02-22 11:54:00,29.3,22.0,30.31,NE,40,0.0,-999.0,73,-99.99,,,0.00,weatherlink.com 1.10,2013-02-22 16:54:00,
2013-02-22 12:09:00,30.2,22.0,30.30,NNE,24,0.0,-999.0,72,-99.99,,,0.00,weatherlink.com 1.10,2013-02-22 17:09:00,
2013-02-22 12:24:00,30.5,22.0,30.30,NNW,333,0.0,-999.0,71,-99.99,,,0.00,weatherlink.com 1.10,2013-02-22 17:24:00,
2013-02-22 12:39:00,31.4,23.0,30.29,NNW,337,0.0,-999.0,71,-99.99,,,0.00,weatherlink.com 1.10,2013-02-22 17:39:00,
2013-02-22 12:54:00,32.7,23.0,30.28,SE,130,0.0,-999.0,68,-99.99,,,0.00,weatherlink.com 1.10,2013-02-22 17:54:00,
2013-02-22 13:09:00,33.3,23.0,30.29,SW,236,1.0,-999.0,65,-99.99,,,0.00,weatherlink.com 1.10,2013-02-22 18:09:00,
2013-02-22 13:24:00,33.6,23.0,30.28,South,191,2.0,-999.0,64,-99.99,,,0.00,weatherlink.com 1.10,2013-02-22 18:24:00,
2013-02-22 13:40:00,33.6,23.0,30.27,NNE,19,4.0,-999.0,65,-99.99,,,0.00,weatherlink.com 1.10,2013-02-22 18:40:00,
2013-02-22 13:54:00,34.3,24.0,30.26,NE,49,0.0,-999.0,66,-99.99,,,0.00,weatherlink.com 1.10,2013-02-22 18:54:00,
2013-02-22 14:09:00,34.8,24.0,30.26,SSE,147,0.0,-999.0,65,-99.99,,,0.00,weatherlink.com 1.10,2013-02-22 19:09:00,
2013-02-22 14:24:00,35.0,23.0,30.25,NNE,19,0.0,-999.0,63,-99.99,,,0.00,weatherlink.com 1.10,2013-02-22 19:24:00,
2013-02-22 14:39:00,34.9,23.0,30.26,North,350,0.0,-999.0,63,-99.99,,,0.00,weatherlink.com 1.10,2013-02-22 19:39:00,
2013-02-22 14:54:00,34.3,23.0,30.25,NNE,25,0.0,-999.0,63,-99.99,,,0.00,weatherlink.com 1.10,2013-02-22 19:54:00,
2013-02-22 15:09:00,34.0,23.0,30.26,South,174,0.0,-999.0,65,-99.99,,,0.00,weatherlink.com 1.10,2013-02-22 20:09:00,
2013-02-22 15:24:00,34.0,23.0,30.25,South,175,0.0,-999.0,65,-99.99,,,0.00,weatherlink.com 1.10,2013-02-22 20:24:00,
2013-02-22 15:39:00,34.0,23.0,30.25,West,268,0.0,-999.0,65,-99.99,,,0.00,weatherlink.com 1.10,2013-02-22 20:39:00,
2013-02-22 15:54:00,33.9,24.0,30.26,South,179,0.0,-999.0,66,-99.99,,,0.00,weatherlink.com 1.10,2013-02-22 20:54:00,
2013-02-22 16:09:00,33.8,23.0,30.25,South,171,2.0,-999.0,66,-99.99,,,0.00,weatherlink.com 1.10,2013-02-22 21:09:00,
2013-02-22 16:24:00,33.7,23.0,30.25,SW,230,0.0,-999.0,66,-99.99,,,0.00,weatherlink.com 1.10,2013-02-22 21:24:00,
2013-02-22 16:39:00,33.5,24.0,30.25,SSW,193,0.0,-999.0,67,-99.99,,,0.00,weatherlink.com 1.10,2013-02-22 21:39:00,
2013-02-22 16:54:00,33.3,23.0,30.25,South,185,0.0,-999.0,67,-99.99,,,0.00,weatherlink.com 1.10,2013-02-22 21:54:00,
2013-02-22 17:09:00,33.1,24.0,30.25,SE,129,0.0,-999.0,68,-99.99,,,0.00,weatherlink.com 1.10,2013-02-22 22:09:00,
2013-02-22 17:24:00,32.9,24.0,30.25,ENE,58,0.0,-999.0,69,-99.99,,,0.00,weatherlink.com 1.10,2013-02-22 22:24:00,
2013-02-22 17:39:00,32.6,23.0,30.25,South,175,4.0,-999.0,69,-99.99,,,0.00,weatherlink.com 1.10,2013-02-22 22:39:00,
2013-02-22 17:54:00,32.5,23.0,30.25,NNE,22,0.0,-999.0,69,-99.99,,,0.00,weatherlink.com 1.10,2013-02-22 22:54:00,
2013-02-22 18:09:00,32.4,24.0,30.25,NE,47,0.0,-999.0,70,-99.99,,,0.00,weatherlink.com 1.10,2013-02-22 23:09:00,
2013-02-22 18:24:00,32.3,24.0,30.26,SW,234,1.0,-999.0,70,-99.99,,,0.00,weatherlink.com 1.10,2013-02-22 23:24:00,
2013-02-22 18:39:00,32.3,24.0,30.25,ESE,116,1.0,-999.0,70,-99.99,,,0.00,weatherlink.com 1.10,2013-02-22 23:39:00,
2013-02-22 18:54:00,32.2,23.0,30.26,NE,46,0.0,-999.0,70,-99.99,,,0.00,weatherlink.com 1.10,2013-02-22 23:54:00,
2013-02-22 19:09:00,32.2,24.0,30.26,NE,46,0.0,-999.0,71,-99.99,,,0.00,weatherlink.com 1.10,2013-02-23 00:09:00,
2013-02-22 19:24:00,32.2,24.0,30.26,SSE,159,0.0,-999.0,72,-99.99,,,0.00,weatherlink.com 1.10,2013-02-23 00:24:00,
2013-02-22 19:39:00,32.2,24.0,30.25,SSE,155,0.0,-999.0,72,-99.99,,,0.00,weatherlink.com 1.10,2013-02-23 00:39:00,
2013-02-22 19:54:00,32.2,24.0,30.25,NE,44,0.0,-999.0,72,-99.99,,,0.00,weatherlink.com 1.10,2013-02-23 00:54:00,
2013-02-22 20:09:00,32.2,24.0,30.24,NE,50,0.0,-999.0,73,-99.99,,,0.00,weatherlink.com 1.10,2013-02-23 01:09:00,
2013-02-22 20:24:00,32.3,25.0,30.24,South,172,0.0,-999.0,73,-99.99,,,0.00,weatherlink.com 1.10,2013-02-23 01:24:00,
2013-02-22 20:39:00,32.3,25.0,30.23,SW,215,0.0,-999.0,73,-99.99,,,0.00,weatherlink.com 1.10,2013-02-23 01:39:00,
2013-02-22 20:54:00,32.4,25.0,30.24,South,173,0.0,-999.0,73,-99.99,,,0.00,weatherlink.com 1.10,2013-02-23 01:54:00,
2013-02-22 21:09:00,32.4,25.0,30.24,East,94,0.0,-999.0,74,-99.99,,,0.00,weatherlink.com 1.10,2013-02-23 02:09:00,
2013-02-22 21:24:00,32.6,25.0,30.23,NNE,28,0.0,-999.0,74,-99.99,,,0.00,weatherlink.com 1.10,2013-02-23 02:24:00,
2013-02-22 21:40:00,32.7,25.0,30.24,WSW,257,0.0,-999.0,74,-99.99,,,0.00,weatherlink.com 1.10,2013-02-23 02:40:00,
2013-02-22 21:54:00,32.7,25.0,30.23,WSW,257,0.0,-999.0,74,-99.99,,,0.00,weatherlink.com 1.10,2013-02-23 02:54:00,
2013-02-22 22:10:00,32.8,25.0,30.23,WSW,257,0.0,-999.0,74,-99.99,,,0.00,weatherlink.com 1.10,2013-02-23 03:10:00,
2013-02-22 22:26:00,32.9,26.0,30.23,WSW,257,0.0,-999.0,75,-99.99,,,0.00,weatherlink.com 1.10,2013-02-23 03:26:00,
2013-02-22 22:40:00,32.9,26.0,30.22,WSW,257,1.0,-999.0,75,-99.99,,,0.00,weatherlink.com 1.10,2013-02-23 03:40:00,
2013-02-22 22:55:00,33.0,26.0,30.22,NE,39,0.0,-999.0,75,-99.99,,,0.00,weatherlink.com 1.10,2013-02-23 03:55:00,
2013-02-22 23:10:00,33.0,26.0,30.22,ENE,66,0.0,-999.0,75,-99.99,,,0.00,weatherlink.com 1.10,2013-02-23 04:10:00,
2013-02-22 23:25:00,33.0,26.0,30.21,NE,46,0.0,-999.0,75,-99.99,,,0.00,weatherlink.com 1.10,2013-02-23 04:25:00,
2013-02-22 23:40:00,33.0,26.0,30.21,NE,46,0.0,-999.0,75,-99.99,,,0.00,weatherlink.com 1.10,2013-02-23 04:40:00,
2013-02-22 23:55:00,33.0,26.0,30.21,NE,46,0.0,-999.0,76,-99.99,,,0.00,weatherlink.com 1.10,2013-02-23 04:55:00,